Weather in Mitino

Russia / Kostroma Oblast     58°08′45″N   42°09′36″E
temp.,
°C
wind,
m/s
gust,
m/s
humid.,
%
clouds,
%
prec.,
mm/h
press.,
hPa
HPBL,
m
15 may, sat
sat1500:00+14ese269596 2.5 1015142
03:00+13se269795 4.9 1015175
06:00+14ese3109574 0.7 1014393
09:00+17se368998 1.8 1012395
12:00+17wsw51094100 7.1 1014524
15:00+22ese5971100 8.4 1010769
18:00+15ne2397100 20.4 1011117
21:00+15s413925 20.9 1010520
16 may, sun
sun1600:00+13s311979 0.0 1010358
03:00+13s3119821 0.0 1010300
06:00+14s412955 0.0 1011519
09:00+17ssw5107729 0.0 1011995
12:00+20sw6105770 0.0 10121727
15:00+21sw595614 0.3 10121850
18:00+19sw511646 0.5 10121445
21:00+14ssw39875 0.6 1013218
17 may, mon
mon1700:00+12sw310965 0.0 1014263
03:00+11sw25974 0.0 101596
06:00+14wsw1390100 0.0 1016134
09:00+19sw236861 0.0 1017649
12:00+22sw235464 0.0 10171427
15:00+23ssw2348100 0.0 10161556
18:00+22sse136281 0.0 1015125
21:00+16ese227945 0.0 101522
18 may, tue
tue1800:00+15ese368762 0.1 1015110
03:00+13ese389597 0.2 1014137
06:00+15ese388874 0.0 1014200
09:00+22se475917 0.0 1013491
12:00+27se510375 0.0 10121709
15:00+28sse58363 0.0 10112019
18:00+24sse411480 0.0 1011590
21:00+18se3147373 0.0 1011319
19 may, wed
wed1900:00+16se3138432 0.0 1011258
03:00+14sse31088100 0.0 1010209
06:00+17ese3879100 0.0 1009189
09:00+22ese41360100 0.0 1008617
12:00+25sse6114292 0.0 10071398
15:00+26sse6124485 0.0 10051795
18:00+22s4106263 0.1 10041146
21:00+16se6137184 0.5 1003904